Theta_e
324 324 324 325 326 327 331 331 330 329 329 329 330 331 331 332 332 337 336 335 330 335 319 311 317 331 330 317 314 326 329 330 332 332 332 331 321 322 325 329 329 329 329 324 320 314 314 316 317
324 324 324 326 325 327 330 329 330 329 329 329 330 330 330 335 334 335 336 332 330 333 328 311 318 327 323 319 313 320 325 329 330 330 326 320 321 320 325 329 329 329 328 325 317 315 314 315 315
324 324 325 327 324 327 329 328 330 329 330 330 331 330 329 335 334 334 335 331 332 329 327 312 316 325 320 318 317 313 318 324 328 325 323 323 318 325 323 329 328 328 323 316 316 316 315 314 314
324 323 325 327 323 325 325 328 330 330 328 329 330 330 331 334 333 336 331 331 334 333 322 313 314 316 315 317 323 318 316 313 324 327 316 313 314 320 317 318 323 323 317 316 316 315 314 313 314
323 323 327 329 326 323 323 322 329 330 329 329 329 330 332 334 336 336 333 331 335 328 320 315 315 316 316 317 323 330 327 322 324 320 317 316 314 314 315 314 314 314 315 316 316 315 314 313 315
325 324 328 330 329 322 322 321 327 329 328 329 328 329 333 335 336 336 334 331 334 327 320 316 316 316 316 317 320 330 328 327 328 327 321 317 316 314 313 315 315 314 315 316 316 316 314 313 315
325 327 329 330 329 327 323 321 325 328 326 328 327 328 334 331 335 336 335 332 333 329 326 318 317 317 316 317 318 320 321 323 328 325 321 317 317 315 315 315 315 315 315 316 316 316 315 314 315
325 325 328 327 329 329 324 322 323 327 327 326 327 325 328 334 328 336 335 332 331 333 326 324 318 318 318 317 317 317 317 317 316 316 317 317 317 317 316 316 316 315 315 315 316 316 316 316 315
320 328 330 328 328 329 322 323 321 323 324 325 327 325 330 332 329 335 335 332 331 331 334 332 324 324 321 318 318 318 317 317 316 316 317 317 319 317 317 316 317 316 316 315 316 316 316 316 317
323 329 330 328 327 325 321 323 322 323 325 325 327 327 334 328 329 334 334 332 331 327 326 327 330 327 326 321 319 318 318 318 317 317 317 325 320 319 317 316 317 317 316 316 316 316 316 317 318
322 329 328 321 319 319 319 319 321 323 325 325 325 328 334 327 330 331 333 332 329 324 321 324 328 330 324 323 320 321 319 320 319 318 318 319 318 317 316 316 317 317 317 316 316 316 317 317 317
318 317 320 318 317 316 318 318 319 322 324 322 323 325 331 324 327 331 333 332 331 329 323 321 325 322 323 323 322 324 322 320 320 320 320 319 319 319 318 317 317 317 317 317 317 317 317 318 318
318 316 316 315 315 315 315 317 318 318 320 320 319 325 330 327 325 332 333 333 332 331 328 323 321 321 321 322 324 325 322 321 321 321 321 321 320 320 319 318 317 317 317 317 317 317 317 318 318
319 318 317 315 315 315 316 317 315 318 318 319 319 325 329 330 331 333 334 333 333 332 330 326 323 322 321 321 321 325 323 322 322 322 322 322 321 322 321 321 319 318 317 317 317 317 317 317 318
318 321 318 317 316 316 315 317 316 316 317 318 319 323 326 329 330 331 332 333 333 332 331 328 325 324 322 321 321 321 322 323 323 323 323 323 322 322 322 323 322 321 319 318 317 317 317 317 318
319 321 327 323 319 317 316 327 325 320 317 318 319 321 324 327 329 330 331 332 332 332 332 328 326 325 324 323 323 323 322 322 323 323 323 323 323 323 323 323 323 323 323 322 320 320 319 319 318
318 326 325 329 322 324 319 329 327 325 317 317 319 321 323 326 328 329 331 331 331 329 325 328 328 328 328 326 326 327 326 324 323 323 323 323 323 323 323 323 323 324 324 324 323 322 322 322 322
326 326 325 330 326 321 322 323 325 316 316 317 318 320 322 325 326 328 329 330 330 329 323 327 329 329 329 329 330 329 327 326 326 325 325 325 325 325 325 324 325 324 324 324 323 323 323 322 321
328 330 331 327 320 317 321 323 323 323 322 317 318 318 319 322 323 326 328 330 330 327 324 330 330 325 326 324 326 325 323 323 323 326 325 328 327 327 326 324 325 324 323 323 322 322 322 321 321
326 328 328 325 316 315 320 321 321 321 322 322 321 317 318 318 320 323 327 328 324 326 319 324 327 322 323 323 323 325 324 324 325 324 323 324 325 321 324 322 323 323 322 322 322 321 321 321 321
324 323 325 324 316 315 316 319 321 320 318 319 320 320 317 317 317 321 325 325 321 317 315 316 316 319 322 322 324 327 327 327 329 327 327 325 325 324 324 323 324 323 323 323 322 322 322 321 322
326 320 324 320 319 327 316 326 325 322 320 317 316 317 317 315 315 316 319 323 322 316 315 314 315 317 319 322 322 323 321 327 323 323 326 326 326 326 326 325 324 323 323 323 323 323 322 321 321
324 321 321 321 318 318 319 316 322 322 318 318 316 315 316 315 315 314 315 317 317 318 318 317 319 320 320 319 319 322 325 323 324 324 327 326 327 327 328 327 326 325 324 324 322 322 322 322 321
315 315 315 314 317 320 320 321 321 320 319 318 317 316 316 317 315 315 315 314 314 315 316 318 319 320 320 320 321 322 324 324 325 326 327 326 326 326 327 328 327 327 324 324 323 322 323 323 322
315 316 320 319 319 321 314 318 320 318 319 317 317 316 316 317 316 316 315 315 315 315 315 314 314 315 318 320 322 323 324 324 324 325 325 324 325 325 324 327 327 326 324 323 323 323 322 322 323
315 320 321 324 323 321 309 316 317 316 316 316 315 314 312 312 313 314 315 314 314 314 314 314 313 313 313 315 317 320 322 323 323 324 325 323 323 321 324 326 328 327 326 324 323 323 322 322 322
315 319 320 313 308 315 316 315 314 314 313 312 312 312 312 312 311 310 311 312 311 312 313 313 313 313 312 312 314 317 319 317 315 314 320 319 321 320 324 325 328 329 327 326 324 321 321 322 321
316 317 317 315 321 318 318 316 316 315 314 314 314 312 312 312 312 311 310 310 310 311 311 311 311 310 310 310 310 311 312 311 312 313 314 317 319 321 323 326 327 329 329 328 325 323 322 322 320
311 316 315 316 316 320 319 317 315 316 314 313 312 311 311 310 310 311 311 310 310 310 311 310 310 310 310 309 309 309 310 310 311 312 314 315 320 321 322 323 326 327 328 325 324 323 322 320 319
312 315 315 317 316 313 312 316 310 313 313 310 311 310 308 308 309 309 309 310 310 310 310 310 310 310 310 310 310 309 310 311 311 312 312 316 319 319 318 319 321 320 325 323 322 322 320 319 318
Wind_Speed
8 9 10 5 6 5 2 5 5 7 7 3 8 1 6 10 8 5 15 11 16 14 10 11 13 12 8 9 11 14 12 10 9 8 8 7 8 9 11 16 16 17 16 15 16 16 15 15 16
7 8 6 6 6 7 6 5 7 9 9 9 6 4 2 8 7 14 14 15 15 15 13 12 14 12 10 10 13 13 11 11 8 6 7 9 10 9 13 16 15 14 15 14 15 15 16 15 16
6 5 7 4 6 4 4 6 10 8 10 10 5 2 3 4 7 18 12 19 16 13 13 13 13 11 11 12 12 11 11 10 9 10 11 10 9 12 11 15 15 13 11 13 14 15 15 15 15
3 3 4 7 5 2 4 6 10 11 5 4 0 6 5 4 13 10 21 19 17 15 13 14 13 10 11 12 11 13 11 10 11 12 11 10 9 10 11 11 13 12 12 13 14 14 14 14 15
5 3 5 4 5 1 2 1 7 10 9 9 5 5 5 5 11 16 21 19 17 16 13 14 13 10 11 11 12 11 11 12 12 12 12 11 11 10 11 12 12 11 11 12 13 13 13 13 14
8 4 5 6 9 2 2 1 8 9 6 7 5 7 6 8 13 18 20 18 17 17 15 14 13 11 11 10 11 12 9 11 11 8 9 10 10 10 10 10 10 10 11 10 11 12 12 13 13
6 6 10 7 7 3 4 4 10 11 8 8 1 5 5 11 16 19 18 17 17 16 16 15 15 13 12 10 11 10 10 11 11 8 6 7 7 8 8 8 8 9 9 9 10 10 11 12 12
10 4 8 8 9 8 6 6 4 13 8 5 4 3 5 16 22 19 18 17 17 16 17 14 15 14 12 12 11 9 9 9 7 6 4 4 5 6 7 6 7 7 7 7 8 9 10 11 10
7 7 10 13 9 6 5 7 3 5 5 7 6 0 3 17 24 21 20 18 17 19 17 15 15 14 13 12 11 10 9 8 7 6 5 4 3 4 4 5 5 5 6 6 6 7 7 8 9
9 9 12 5 7 4 4 6 8 8 12 10 7 5 12 15 25 25 23 22 21 22 23 20 15 15 15 13 12 10 8 8 7 6 6 6 5 5 3 4 4 4 4 4 4 5 5 5 5
6 10 5 6 2 2 2 5 6 10 10 15 14 13 16 19 25 26 23 22 23 22 24 22 18 16 16 14 14 12 11 10 8 7 7 7 5 5 4 3 4 3 2 2 2 2 2 2 2
4 2 5 6 5 4 3 1 6 13 11 4 8 14 19 21 26 26 25 22 22 22 24 24 22 20 18 16 15 12 12 11 10 8 8 7 6 5 6 4 3 3 3 2 2 1 1 1 1
7 5 6 6 6 4 2 5 7 10 17 10 6 16 20 20 22 23 22 21 21 22 23 25 25 22 21 19 17 15 14 13 12 11 10 9 8 7 6 5 5 5 5 5 4 4 3 4 4
8 8 6 7 7 5 6 10 3 9 13 15 12 17 19 21 21 20 23 25 24 23 24 25 26 24 23 22 20 17 17 16 15 14 13 11 11 9 8 7 7 6 7 7 6 6 7 6 6
5 7 4 7 9 5 7 12 13 17 7 12 16 16 18 19 20 23 24 25 25 24 24 26 27 25 24 23 22 22 19 19 18 17 16 15 14 13 11 11 10 9 8 8 8 8 8 9 9
3 3 8 9 11 6 7 16 14 14 15 16 17 19 19 20 21 21 22 23 24 25 26 27 28 26 26 25 23 23 22 22 20 20 19 18 17 16 15 15 13 12 10 9 9 8 8 9 10
3 3 10 9 11 7 12 11 14 16 15 17 18 19 21 20 21 21 22 23 23 25 27 29 29 27 27 26 24 24 24 24 22 22 22 22 21 20 19 18 16 14 12 11 10 10 9 9 11
7 6 6 15 7 13 12 19 16 10 11 16 17 20 21 21 23 22 23 23 23 24 26 27 29 28 28 27 28 26 26 25 24 24 23 23 23 22 20 19 18 16 14 13 12 13 12 12 13
14 14 15 14 6 7 15 19 18 21 21 18 18 19 21 23 19 20 23 24 24 24 26 28 29 29 30 30 31 30 29 25 24 26 24 21 22 23 22 22 19 18 16 15 14 14 15 14 14
12 14 13 7 7 7 12 19 17 18 23 23 24 22 22 22 20 21 23 25 28 27 29 30 32 31 33 34 32 32 30 27 25 24 24 22 21 21 23 20 18 18 16 16 16 16 15 16 14
15 16 14 11 3 10 10 19 20 19 28 27 27 27 25 25 22 24 26 30 30 31 32 34 34 34 34 35 33 32 31 28 29 29 28 25 23 24 20 19 21 20 18 19 19 18 18 18 17
19 13 10 8 5 7 4 8 12 4 12 17 27 29 29 28 31 32 32 32 33 33 33 33 35 36 36 36 36 37 37 38 33 29 28 27 25 25 22 21 22 20 22 23 20 20 19 17 18
16 14 13 9 9 11 13 6 6 11 11 16 22 30 33 34 36 35 34 34 33 33 35 35 36 37 38 38 38 38 38 36 32 29 29 27 26 26 25 22 22 22 24 21 19 19 20 19 17
14 11 7 4 7 10 17 15 11 14 17 15 17 25 29 32 31 31 31 31 33 32 34 36 37 39 38 40 40 39 38 36 33 32 31 29 26 24 25 22 21 21 20 19 20 20 22 21 19
14 17 5 4 6 9 2 8 15 7 12 15 12 11 15 25 31 30 26 32 33 33 33 34 35 38 40 40 41 40 40 37 35 33 32 30 28 26 24 23 23 22 21 17 20 22 21 20 20
20 18 7 8 7 5 3 9 5 16 21 23 16 10 8 8 16 26 26 27 32 33 33 34 35 38 39 41 41 39 38 38 37 34 35 35 31 26 24 26 26 25 24 22 22 22 21 22 21
21 18 9 4 1 1 7 10 9 13 14 11 11 13 17 16 17 17 21 29 27 28 31 35 38 40 41 41 41 40 38 37 36 35 34 36 31 29 28 29 29 28 27 26 25 22 23 22 22
18 15 8 5 6 6 6 8 9 7 15 11 8 12 12 13 16 19 18 18 21 22 25 29 32 33 34 37 37 36 34 33 33 32 34 32 32 31 28 28 28 29 29 27 26 26 25 23 20
9 16 9 8 5 3 2 3 3 9 6 6 4 7 9 11 14 15 21 23 21 19 18 21 23 24 25 28 31 32 32 32 31 30 30 31 30 29 28 28 28 28 27 26 23 22 22 21 19
16 11 13 7 8 3 2 5 3 3 8 3 4 3 4 5 8 10 15 19 19 18 18 17 17 16 17 19 22 23 24 26 26 27 29 30 30 27 26 26 25 25 26 24 23 23 21 19 19
Wind_Direction
318 331 332 299 242 246 135 144 102 130 148 86 115 117 42 17 7 55 139 137 139 136 137 125 129 119 121 107 127 143 131 130 124 128 130 113 99 88 84 90 83 87 83 78 76 71 73 78 79
304 322 306 278 259 216 144 123 164 150 112 142 116 114 150 86 59 128 138 144 139 144 128 134 137 117 114 101 114 143 146 142 136 165 148 112 108 93 98 100 91 85 81 77 74 75 72 74 77
285 310 281 288 268 269 121 170 120 115 135 158 132 43 55 76 110 136 160 145 142 143 138 139 139 123 112 106 109 127 150 162 127 103 109 109 104 98 107 105 102 96 87 78 73 70 70 72 76
277 258 242 249 231 54 21 153 130 140 147 194 118 120 90 97 145 152 149 148 143 147 145 142 141 138 112 108 107 111 108 110 120 111 103 99 107 114 101 113 102 96 84 78 76 73 70 73 80
213 243 240 253 245 248 128 51 179 179 162 177 186 122 103 124 150 149 150 150 152 148 153 146 141 145 123 115 112 111 97 96 101 107 99 97 90 91 97 101 91 90 85 83 77 72 72 79 82
207 221 225 234 246 169 200 171 193 197 176 151 183 149 122 157 154 156 154 154 155 158 155 152 147 145 140 128 124 117 119 102 101 114 106 101 96 93 93 92 91 90 87 87 80 75 72 80 83
220 216 222 227 242 228 201 162 203 201 191 191 148 211 121 170 169 161 159 160 157 167 160 161 157 152 149 144 144 134 131 127 129 126 102 102 101 100 103 99 92 89 89 88 82 78 78 84 85
211 226 212 220 226 233 138 181 218 206 195 150 189 200 183 183 174 164 164 166 163 174 166 169 167 163 160 159 155 148 137 142 141 137 129 117 113 111 117 118 101 93 90 89 86 82 80 80 82
195 219 216 220 217 226 146 207 187 178 178 195 196 109 112 187 174 166 171 172 174 178 176 173 175 171 173 172 169 165 158 152 151 148 144 137 118 113 129 123 121 108 96 91 87 83 82 78 76
217 223 226 233 217 215 176 226 167 188 201 207 194 176 155 182 180 175 181 181 182 188 185 179 181 180 180 180 178 176 174 172 168 165 163 152 167 174 168 152 147 130 108 98 91 89 87 77 72
207 219 197 189 169 173 181 207 209 214 207 223 208 190 174 181 188 190 190 194 192 195 192 193 182 190 189 189 188 188 187 190 190 184 180 181 186 188 202 176 174 166 153 130 112 96 81 86 101
188 217 187 152 160 163 190 236 211 226 219 189 216 197 187 196 198 200 199 197 194 197 205 200 193 201 194 200 198 201 202 201 202 206 203 200 200 197 202 208 207 208 209 209 217 211 245 253 260
220 177 189 154 162 194 187 223 251 242 239 237 218 186 196 202 207 205 203 200 201 202 207 210 207 205 208 205 205 209 212 214 215 218 217 216 217 216 217 224 227 230 234 237 245 254 266 269 273
195 176 179 188 198 203 225 244 209 241 236 221 213 201 201 203 205 202 202 202 204 205 207 214 214 213 214 215 214 216 218 219 224 227 230 228 229 231 231 235 240 243 242 247 253 260 268 278 281
148 164 213 206 197 220 216 247 235 246 253 223 217 215 211 210 205 208 209 207 206 207 208 212 219 218 220 222 225 226 226 225 230 232 235 235 235 239 240 242 244 248 254 259 263 267 273 284 290
122 232 214 197 203 194 195 255 243 235 221 234 228 219 214 215 213 213 212 210 212 208 208 214 221 219 222 226 227 231 232 231 236 238 241 242 241 242 244 246 249 251 256 263 268 275 284 292 294
66 168 229 220 209 202 206 258 253 242 233 240 233 226 217 218 216 214 213 211 210 214 214 217 221 221 223 226 228 234 239 236 236 242 244 246 246 245 247 248 250 254 257 263 274 280 284 292 301
153 178 234 229 203 228 218 248 248 213 234 242 243 230 224 221 220 214 212 211 210 213 211 213 220 222 224 226 230 233 238 238 234 238 244 246 249 248 247 249 250 256 259 263 272 278 279 285 288
197 204 208 216 152 230 239 250 251 248 236 244 243 243 233 233 226 219 211 210 211 212 209 210 214 220 222 222 225 229 234 235 236 240 243 245 247 250 248 255 251 255 257 260 267 273 280 282 287
225 207 221 218 162 217 258 261 258 254 251 244 242 233 233 235 230 218 213 211 216 212 213 212 217 220 222 227 229 233 239 239 243 245 250 241 247 249 249 252 249 252 255 257 261 269 274 277 282
206 208 212 232 163 239 272 274 259 247 243 243 238 238 232 228 223 216 212 219 217 217 218 218 222 223 225 228 230 234 239 241 240 243 244 246 246 248 249 247 250 250 252 252 259 262 265 273 280
204 216 223 217 241 246 185 278 268 241 228 227 233 229 226 222 224 222 221 217 220 225 223 224 224 226 228 231 231 235 239 239 245 249 251 253 248 250 252 252 250 250 253 253 260 266 270 270 275
220 184 205 215 245 277 239 258 270 248 240 244 232 230 227 223 227 230 227 233 233 232 230 231 231 231 233 234 238 236 241 246 249 251 251 251 250 249 251 252 251 251 247 248 253 259 263 267 269
128 151 151 199 252 253 238 236 252 246 235 242 240 233 228 224 225 233 236 237 236 235 235 237 236 238 239 239 239 241 242 246 247 247 248 250 248 246 247 251 250 253 254 246 251 255 258 261 262
161 161 154 202 214 241 103 235 244 251 239 244 252 255 237 225 225 228 228 233 237 235 237 239 241 242 241 242 241 241 243 245 246 248 248 248 246 247 247 246 242 243 246 246 242 248 253 258 267
186 182 175 194 217 240 139 237 249 244 245 247 249 246 257 248 228 232 230 233 242 242 242 243 244 244 242 242 242 240 241 241 244 245 248 251 251 251 246 243 242 240 239 248 250 251 253 259 264
193 206 212 94 133 289 212 247 275 261 240 235 239 242 242 233 226 235 234 236 237 241 244 246 246 244 240 237 239 239 237 240 242 245 244 248 249 249 245 243 239 239 238 240 245 253 254 260 266
194 163 189 211 192 228 242 257 254 222 237 238 246 247 256 244 229 224 231 229 228 234 242 244 243 246 244 240 239 240 241 241 241 241 242 243 245 246 244 243 242 240 240 240 242 251 254 257 265
174 190 204 185 216 252 274 233 209 244 156 180 291 280 258 274 238 221 228 228 234 243 246 242 238 237 236 234 235 237 238 238 240 239 239 242 241 243 244 241 240 241 236 235 238 245 245 250 260
203 196 196 186 194 193 60 271 52 171 142 87 323 277 254 237 209 210 226 228 231 232 228 224 223 222 223 225 227 230 233 234 235 236 239 237 238 242 243 241 239 238 231 234 237 240 238 250 257